TIME,DELAY(SENSOR),PRES,OXYGEN,RAWTEMP,T(OPTODE),TCPHASE,FLUOR,BETA(BETA700),BETA(BETA412),BETA(BETA440),CDOM,C(CSC),ED(ED412.20),ED(ED444.00),ED(ED489.60),ED(ED554.30),LU(LU412.10),LU(LU443.90),LU(LU489.70),LU(LU554.70),COMP,TILTX,TILTY,CHECK
1350961868,5807,893.9600219726562000,33.7355995178222660,555.5501098632812000,4.6237258911132810,56.4418907165527340,55,100,100,79,82,15540,0,0,0,0,2147121609,2147775213,2147571392,2147569691,2844,3,13,64298
1350965464,5809,959.0800170898438000,39.5458412170410160,562.7587280273438000,4.4003682136535645,55.6092681884765600,54,101,100,78,81,15538,0,0,0,0,2147123209,2147773641,2147571154,2147571739,837,3,13,28328
1350969064,5812,969.6099853515625000,40.3189086914062500,564.3862304687500000,4.3498778343200680,55.5040702819824200,54,99,100,78,82,15540,0,0,0,0,2147125449,2147768356,2147574893,2147569645,53,3,13,47620
1350972664,5812,995.8800048828125000,40.9663696289062500,566.2224731445312000,4.2928891181945800,55.4303283691406250,55,97,101,77,83,15539,0,0,0,0,2147123044,2147780937,2147570020,2147568146,3360,3,13,46421
1350976264,5812,998.2899780273438000,40.7162704467773440,567.1005859375000000,4.2656250000000000,55.4746513366699200,55,103,104,78,82,15490,0,0,0,0,2147126116,2147775725,2147576822,2147571200,899,3,13,49258
1350979864,5810,996.9400024414062000,39.7550392150878900,566.6676025390625000,4.2790699005126950,55.6207199096679700,56,100,100,78,81,15522,0,0,0,0,2147122002,2147773101,2147575040,2147572992,272,3,13,7196
1350983464,5812,1001.8300170898438000,39.5302505493164060,567.0933837890625000,4.2658500671386720,55.6555099487304700,55,99,100,78,82,15513,0,0,0,0,2147124105,2147771830,2147576301,2147571035,96,3,13,43804
1350987064,5812,1000.8499755859375000,39.5556411743164060,568.3244018554688000,4.2276191711425780,55.6629295349121100,54,98,100,78,82,15537,0,0,0,0,2147121828,2147770569,2147571693,2147570331,168,3,13,1912
1350990664,5810,1004.0900268554688000,39.5143814086914060,568.1245117187500000,4.2338280677795410,55.6704483032226560,55,97,100,77,82,15530,0,0,0,0,2147123648,2147770304,2147573467,2147572251,222,3,13,18853
1350994264,5813,1007.8699951171875000,39.6680603027343750,567.4025878906250000,4.2562470436096190,55.6356697082519500,55,99,99,78,83,15522,0,0,0,0,2147123830,2147771318,2147573714,2147571602,3541,3,13,28983
1350997864,5810,1000.6599731445312000,39.6837692260742200,568.5017089843750000,4.2221131324768070,55.6416893005371100,54,98,100,78,84,15531,0,0,0,0,2147125074,2147772041,2147574793,2147569106,3221,3,13,48986
1351001464,5810,1008.9799804687500000,39.9198684692382800,567.9033813476562000,4.2406940460205080,55.6039009094238300,55,98,100,77,82,15531,0,0,0,0,2147123108,2147769444,2147569453,2147572882,3172,3,13,64508
1351005064,5814,1010.0800170898438000,39.3381690979003900,567.3610839843750000,4.2575359344482420,55.6870689392089840,55,99,101,78,82,15534,0,0,0,0,2147126445,2147776283,2147574070,2147570203,3400,3,13,11634
1351008664,5809,1005.3300170898438000,39.0673103332519500,567.6646728515625000,4.2481098175048830,55.7299118041992200,55,100,100,78,82,15536,0,0,0,0,2147124736,2147773138,2147575350,2147567414,560,3,13,45966
1351012264,5809,1010.6900024414062000,39.3097190856933600,567.1840209960938000,4.2630372047424320,55.6899604797363300,54,99,100,77,82,15531,0,0,0,0,2147121856,2147772004,2147570340,2147570971,134,3,13,28032
1351015864,5809,1011.0300292968750000,38.7657203674316400,566.4199829101562000,4.2867569923400880,55.7619705200195300,55,99,101,78,82,15531,0,0,0,0,2147122075,2147767003,2147571081,2147571739,605,3,13,7972
1351019464,5810,1009.2899780273438000,38.6243896484375000,566.6937866210938000,4.2782549858093260,55.7862205505371100,56,99,99,77,82,15533,0,0,0,0,2147123035,2147769517,2147575497,2147570432,3040,3,13,2100
1351023064,5808,1010.0999755859375000,39.0144996643066400,567.0363159179688000,4.2676219940185550,55.7338409423828100,54,98,101,78,83,15446,0,0,0,0,2147122240,2147770404,2147572818,2147568320,435,3,13,40214
1351026664,5811,1008.7800292968750000,38.8062286376953100,566.7927246093750000,4.2751851081848145,55.7587699890136700,55,102,101,78,82,15441,0,0,0,0,2147122038,2147769728,2147574811,2147569426,42,3,13,29142
1351030264,5810,1011.9299926757812000,38.9401512145996100,566.8937988281250000,4.2720470428466800,55.7392997741699200,55,100,100,78,83,15443,0,0,0,0,2147122304,2147772553,2147572205,2147571940,344,3,13,30787
1351033864,5811,1024.1300048828125000,39.0316200256347660,565.8734741210938000,4.3037219047546390,55.7191886901855500,55,99,102,78,82,15215,0,0,0,0,2147125732,2147770477,2147573613,2147570889,3329,3,13,27045
1351037464,5811,1028.6700439453125000,40.6890296936035160,566.4083862304688000,4.2871150970458980,55.4758911132812500,55,99,100,78,82,15217,0,0,0,0,2147120914,2147766226,2147577499,2147568484,3097,3,13,1045
1351041064,5812,1020.3900146484375000,39.8502998352050800,566.3491210937500000,4.2889599800109860,55.5967292785644500,55,100,100,77,83,15197,0,0,0,0,2147125467,2147766802,2147573595,2147567606,2,3,13,23111
1351044664,5810,1018.7600097656250000,38.9869995117187500,566.1768798828125000,4.2943019866943360,55.7259788513183600,55,100,102,79,82,15218,0,0,0,0,2147125933,2147772370,2147574153,2147571099,3460,3,13,31993
1351048264,5811,1015.5399780273438000,38.8362083435058600,566.4824829101562000,4.2848148345947270,55.7563591003418000,56,98,98,78,82,15215,0,0,0,0,2147121462,2147775936,2147575478,2147569078,3509,3,13,22911
1351051864,5811,1011.6900024414062000,38.6812286376953100,566.3488159179688000,4.2889690399169920,55.7750205993652340,54,98,100,77,83,15214,0,0,0,0,2147122688,2147771904,2147573860,2147569179,111,3,13,12921
1351055464,5811,1008.5399780273438000,38.7275886535644500,567.0858764648438000,4.2660827636718750,55.7780189514160160,55,100,101,79,83,15215,0,0,0,0,2147124397,2147767954,2147576493,2147571181,3243,3,13,52011
1351059064,5810,1012.9000244140625000,39.6039199829101560,569.0460205078125000,4.2052040100097660,55.6632385253906250,55,96,101,77,83,15217,0,0,0,0,2147123318,2147769435,2147570523,2147572480,140,3,13,51668
1351062664,5813,1014.0399780273438000,39.4359703063964840,568.0332031250000000,4.2366638183593750,55.6792984008789060,55,97,100,78,82,15220,0,0,0,0,2147121280,2147772306,2147566619,2147569691,94,3,13,35448
1351066264,5807,1010.3200073242188000,39.0358009338378900,568.8862304687500000,4.2101688385009770,55.7501411437988300,55,98,101,79,83,15217,0,0,0,0,2147123977,2147773641,2147573293,2147569060,2360,3,13,6359
1351069864,5813,1018.5700073242188000,39.7740097045898440,568.2296142578125000,4.2305660247802730,55.6287002563476560,56,98,101,78,82,15198,0,0,0,0,2147125330,2147771446,2147567972,2147570642,46,3,13,53813
1351073464,5810,1011.8200073242188000,39.3335494995117200,569.6414794921875000,4.1866989135742190,55.7080917358398440,55,98,100,78,83,15214,0,0,0,0,2147123328,2147778779,2147572178,2147569618,150,3,13,4740
1351077064,5812,1011.7800292968750000,39.7211799621582000,568.9940795898438000,4.2068138122558590,55.6457595825195300,55,98,102,78,83,15216,0,0,0,0,2147122678,2147775414,2147570560,2147568722,346,3,13,4327
1351080664,5811,1010.2899780273438000,41.1424102783203100,570.4539184570312000,4.1614527702331540,55.4478912353515600,56,97,99,76,83,15212,0,0,0,0,2147123693,2147774116,2147573869,2147568923,61,3,13,40962
1351084264,5807,1025.7199707031250000,40.0798416137695300,568.3906860351562000,4.2255568504333500,55.5879287719726560,54,99,102,78,83,15216,0,0,0,0,2147123483,2147771666,2147567817,2147567040,434,3,13,3077
1351087864,5809,1014.4799804687500000,38.5017204284668000,567.4652099609375000,4.2543048858642580,55.8126106262207000,55,98,100,78,82,15220,0,0,0,0,2147124160,2147767524,2147573787,2147570057,3388,3,13,53574
1351091464,5809,1017.3200073242188000,38.9194297790527340,567.2119140625000000,4.2621707916259770,55.7452507019043000,55,98,103,78,82,15218,0,0,0,0,2147122934,2147774281,2147572288,2147571456,278,3,13,48899
1351095064,5809,1015.4199829101562000,38.9003295898437500,567.8494262695312000,4.2423729896545410,55.7627716064453100,55,100,100,78,83,15217,0,0,0,0,2147127433,2147775168,2147574390,2147571474,3560,3,13,30206
1351098664,5812,1014.3099975585938000,39.1875495910644500,568.4390869140625000,4.2240557670593260,55.7226409912109400,54,97,101,78,82,15219,0,0,0,0,2147122605,2147773394,2147571446,2147569124,289,3,13,32150
1351102264,5809,1019.8699951171875000,39.7073097229003900,568.3142700195312000,4.2279319763183590,55.6380195617675800,55,98,100,78,83,15214,0,0,0,0,2147121554,2147772800,2147570285,2147567122,42,3,13,42840
1351105864,5809,1023.4699707031250000,38.6089897155761700,567.1340942382812000,4.2645850181579590,55.7914581298828100,56,98,100,77,82,15221,0,0,0,0,2147123053,2147773321,2147571885,2147572352,197,3,13,35528
1351106757,5809,1021.5800170898438000,38.9056892395019500,566.9514770507812000,4.2702560424804690,55.7465400695800800,55,101,100,78,82,15221,0,0,0,0,2147121929,2147772059,2147572845,2147567634,38,3,13,6412
